This demonstration page uses our WeatherBlox Daily Observations layout. Learn more.

Hourly Observations for April 23, 2018

Temp ( °F °C ) Dew Point ( °F °C ) Humidity (%) Winds ( mph kmh ) Pressure ( in mb ) Visibility ( mi km ) Precip ( " mm )
12:15 am 00:15 Cloudy 51 10.6 39 4.1 64 64 S 3 6 30.18 1022 10 16.0934 0 0
12:35 am 00:35 Cloudy 51 10.8 38 3.6 61 61 SSW 5 7 30.15 1021 10 16.0934 0 0
12:55 am 00:55 Cloudy 51 10.6 40 4.2 65 65 Calm 30.18 1022 10 16.0934 0 0
1:15 am 01:15 Mostly Cloudy 47 8.5 39 4 74 74 WSW 3 6 30.18 1022 10 16.0934 0 0
1:35 am 01:35 Partly Cloudy 44 6.6 38 3.3 80 80 Calm 30.21 1023 10 16.0934 0 0
1:55 am 01:55 Mostly Cloudy 41 5.1 37 2.7 85 85 Calm 30.21 1023 10 16.0934 0 0
2:15 am 02:15 Partly Cloudy 41 4.8 36 2.2 83 83 W 3 6 30.21 1023 10 16.0934 0 0
2:35 am 02:35 Clear 40 4.4 36 2.1 85 85 W 3 6 30.21 1023 10 16.0934 0 0
2:55 am 02:55 Clear 40 4.6 36 2.1 84 84 Calm 30.18 1022 10 16.0934 0 0
3:15 am 03:15 Mostly Cloudy 40 4.5 36 2.1 85 85 Calm 30.18 1022 10 16.0934 0 0
3:35 am 03:35 Cloudy 40 4.3 36 2.3 87 87 Calm 30.18 1022 10 16.0934 0 0
3:55 am 03:55 Cloudy 40 4.4 36 2.4 87 87 WNW 3 6 30.18 1022 10 16.0934 0 0
4:15 am 04:15 Cloudy 40 4.3 37 2.5 88 88 Calm 30.18 1022 10 16.0934 0 0
4:35 am 04:35 Mostly Cloudy 40 4.2 36 2.3 88 88 Calm 30.18 1022 10 16.0934 0 0
4:55 am 04:55 Clear 38 3.3 35 1.9 91 91 NW 5 7 30.21 1023 10 16.0934 0 0
5:15 am 05:15 Clear 38 3.2 36 2.1 93 93 NW 5 7 30.21 1023 10 16.0934 0 0
5:35 am 05:35 Clear 37 2.8 36 2 95 95 NW 5 7 30.24 1024 10 16.0934 0 0
5:55 am 05:55 Clear 36 2.3 35 1.6 95 95 NNW 3 6 30.24 1024 10 16.0934 0 0
6:15 am 06:15 Clear 37 2.5 35 1.7 95 95 Calm 30.24 1024 10 16.0934 0 0
6:35 am 06:35 Clear 36 2.3 35 1.7 96 96 N 5 7 30.24 1024 10 16.0934 0 0
6:55 am 06:55 Sunny 35 1.7 34 1.1 96 96 NNE 3 6 30.24 1024 7 11.26538 0 0
7:15 am 07:15 Sunny with Mist and Fog 37 2.6 36 2.1 97 97 Calm 30.24 1024 5 8.0467 0 0
7:35 am 07:35 Sunny with Mist and Fog 36 2.4 36 2.1 98 98 Calm 30.24 1024 5 8.0467 0 0
7:55 am 07:55 Sunny with Mist and Fog 40 4.6 39 4.1 97 97 Calm 30.21 1023 5 8.0467 0 0
8:15 am 08:15 Sunny 44 6.9 42 5.4 90 90 Calm 30.21 1023 10 16.0934 0 0
8:35 am 08:35 Sunny 47 8.6 42 5.5 81 81 Calm 30.18 1022 10 16.0934 0 0
8:55 am 08:55 Sunny 51 10.4 42 5.6 72 72 ENE 3 6 30.18 1022 10 16.0934 0 0
9:15 am 09:15 Sunny 53 11.6 42 5.6 67 67 NE 3 6 30.15 1021 10 16.0934 0 0
9:35 am 09:35 Sunny 54 12.4 42 5.4 63 63 ENE 6 9 30.15 1021 10 16.0934 0 0
9:55 am 09:55 Sunny 56 13.6 41 5 56 56 ENE 6 9 30.15 1021 10 16.0934 0 0
10:15 am 10:15 Sunny 58 14.5 38 3.4 48 48 Calm 30.12 1020 10 16.0934 0 0
10:35 am 10:35 Sunny 59 15.2 39 4 47 47 Calm 30.12 1020 10 16.0934 0 0
10:55 am 10:55 Sunny 60 15.5 37 2.6 42 42 ESE 3 6 30.12 1020 10 16.0934 0 0
11:15 am 11:15 Sunny 61 16.1 37 2.9 41 41 ESE 3 6 30.12 1020 10 16.0934 0 0
11:35 am 11:35 Sunny 62 16.5 38 3.4 42 42 SE 6 9 30.12 1020 10 16.0934 0 0
11:55 am 11:55 Sunny 62 16.9 38 3.5 41 41 Calm 30.12 1020 10 16.0934 0 0
12:15 pm 12:15 Sunny 63 17.2 38 3.6 41 41 SE 8 13 30.12 1020 10 16.0934 0 0
12:35 pm 12:35 Sunny 64 18 39 4.1 40 40 SSE 3 6 30.06 1018 10 16.0934 0 0
12:55 pm 12:55 Sunny 64 18 39 4.1 40 40 SSE 7 11 30.06 1018 10 16.0934 0 0
1:15 pm 13:15 Partly Cloudy 65 18.5 40 4.5 40 40 SSE 10 17 30.06 1018 10 16.0934 0 0
1:35 pm 13:35 Partly Cloudy 65 18.3 39 4 39 39 ESE 8 13 30.06 1018 10 16.0934 0 0
1:55 pm 13:55 Partly Cloudy 65 18.4 39 3.7 38 38 SE 12 19 30.06 1018 10 16.0934 0 0
2:15 pm 14:15 Partly Cloudy 66 18.9 39 4.1 38 38 SE 8 13 30.06 1018 10 16.0934 0 0
2:35 pm 14:35 Partly Cloudy 67 19.6 40 4.4 37 37 S 8 13 30.06 1018 10 16.0934 0 0
2:55 pm 14:55 Partly Cloudy 67 19.3 40 4.4 38 38 S 7 11 30.06 1018 10 16.0934 0 0
3:15 pm 15:15 Mostly Cloudy 66 19.1 40 4.3 38 38 SSE 9 15 30.03 1017 10 16.0934 0 0
3:35 pm 15:35 Partly Cloudy 67 19.6 39 4 36 36 SSE 6 9 30.03 1017 10 16.0934 0 0
3:55 pm 15:55 Partly Cloudy 67 19.7 40 4.5 37 37 SE 9 15 30.03 1017 10 16.0934 0 0
4:15 pm 16:15 Partly Cloudy 67 19.3 40 4.4 38 38 SSE 8 13 30.03 1017 10 16.0934 0 0
4:35 pm 16:35 Partly Cloudy 67 19.4 40 4.2 37 37 S 3 6 30 1016 10 16.0934 0 0
4:55 pm 16:55 Partly Cloudy 68 19.9 40 4.6 37 37 SSE 7 11 30 1016 10 16.0934 0 0
5:15 pm 17:15 Sunny 69 20.3 40 4.3 35 35 SSW 8 13 29.97 1015 10 16.0934 0 0
5:35 pm 17:35 Partly Cloudy 68 20 39 3.8 34 34 S 12 19 30 1016 10 16.0934 0 0
5:55 pm 17:55 Sunny 68 20 40 4.5 36 36 SW 6 9 30 1016 10 16.0934 0 0
6:15 pm 18:15 Partly Cloudy 68 20 39 4.1 35 35 SSE 8 13 30 1016 10 16.0934 0 0
6:35 pm 18:35 Sunny 67 19.5 39 4 36 36 S 6 9 30 1016 10 16.0934 0 0
6:55 pm 18:55 Sunny 67 19.5 39 4 36 36 SSE 8 13 30 1016 10 16.0934 0 0
7:15 pm 19:15 Sunny 67 19.3 40 4.2 37 37 SSE 7 11 30 1016 10 16.0934 0 0
7:35 pm 19:35 Sunny 65 18.6 40 4.5 40 40 SSE 8 13 30 1016 10 16.0934 0 0
7:55 pm 19:55 Sunny 63 17 40 4.5 44 44 SSE 8 13 30 1016 10 16.0934 0 0
8:15 pm 20:15 Sunny 62 16.4 41 5 47 47 SSE 3 6 30.03 1017 10 16.0934 0 0
8:35 pm 20:35 Clear 59 15.1 40 4.7 50 50 SSE 6 9 30.03 1017 10 16.0934 0 0
8:55 pm 20:55 Clear 56 13.1 40 4.5 56 56 SSE 3 6 30.06 1018 10 16.0934 0 0
9:15 pm 21:15 Clear 55 12.6 40 4.3 57 57 SSE 3 6 30.06 1018 10 16.0934 0 0
9:35 pm 21:35 Clear 54 12.2 40 4.5 60 60 SSE 6 9 30.09 1019 10 16.0934 0 0
9:55 pm 21:55 Clear 52 11.1 40 4.2 63 63 SE 7 11 30.09 1019 10 16.0934 0 0
10:15 pm 22:15 Clear 52 11.2 40 4.4 63 63 SSE 7 11 30.09 1019 10 16.0934 0 0
10:35 pm 22:35 Clear 50 10.1 40 4.2 67 67 SE 6 9 30.09 1019 10 16.0934 0 0
10:55 pm 22:55 Clear 49 9.4 39 4 69 69 SSE 3 6 30.12 1020 10 16.0934 0 0
11:15 pm 23:15 Clear 49 9.4 39 4 69 69 SE 3 6 30.12 1020 10 16.0934 0 0
11:35 pm 23:35 Clear 49 9.3 39 4 70 70 Calm 30.12 1020 10 16.0934 0 0
11:55 pm 23:55 Clear 49 9.6 40 4.3 70 70 Calm 30.15 1021 10 16.0934 0 0

Powered by AerisWeather